CAPE
1137 1368 1394 1481 1438 1352 1129 973 911 1032 1068 1044 973 942 732 723 380 587 600 602 680 972 941 787 797 1015 1202 1327 1403 1126 852 779 775 1094 1092 1145 1146 1118 1250 1203 1277 1183
993 1173 1063 1259 1060 892 1096 1184 883 914 911 882 997 820 621 467 361 553 796 856 795 962 959 983 992 1040 1075 974 1003 1343 1228 1105 1218 657 1115 1045 1117 1048 1214 1283 1283 1250
821 943 966 1054 1037 957 927 783 790 853 813 663 659 848 601 410 208 304 630 974 1023 1036 1133 1157 1165 1106 1143 1204 1260 1348 1270 1197 1103 850 1054 1054 1139 1165 1343 1285 1201 1152
837 890 892 1049 1038 945 722 526 452 498 537 498 715 685 479 148 206 385 600 526 881 824 827 946 1100 965 865 889 1027 1056 967 1000 894 936 1107 966 1034 1103 1103 1098 1203 1090
816 612 654 719 771 744 592 614 482 500 586 677 473 320 207 95 149 240 488 515 585 562 597 621 615 645 517 558 702 726 597 656 667 596 736 688 514 699 786 923 1132 1273
768 678 455 454 492 514 546 590 463 418 356 349 512 224 203 115 103 184 378 417 338 393 424 502 553 556 542 572 624 633 638 539 522 358 239 253 166 176 332 664 1007 1198
737 732 505 410 384 508 562 486 330 260 291 387 107 130 23 37 50 83 106 138 152 215 460 520 558 502 498 504 523 508 307 188 0 0 0 0 0 0 260 471 612 727
526 461 351 256 424 416 518 302 230 200 119 36 192 1 0 0 0 24 32 22 38 58 59 42 2 0 0 15 0 0 0 0 0 0 0 0 0 0 0 9 52 83
292 176 121 256 414 407 420 130 94 19 1 142 28 0 0 0 0 0 0 0 0 0 0 0 0 0 0 5 36 8 0 0 0 1 4 3 7 0 0 0 0 0
217 105 178 226 318 311 320 116 20 0 0 24 0 0 0 0 0 0 0 0 0 0 0 0 0 0 0 0 0 5 1 0 0 0 17 83 13 0 0 0 20 25
102 83 173 218 248 200 208 48 6 0 0 0 0 0 0 0 0 0 0 0 0 0 0 0 0 0 0 0 4 34 26 0 0 0 5 8 25 0 0 7 8 85
12 2 0 0 0 0 0 2 0 0 0 0 0 0 0 0 0 0 0 0 0 0 0 0 0 0 0 0 0 0 7 29 9 2 0 0 0 0 0 1 36 6
5 0 0 0 0 0 0 0 0 0 0 0 0 0 0 0 0 0 0 0 0 0 0 0 0 0 0 0 0 0 0 2 5 8 3 5 0 0 0 0 0 0
1 0 0 0 0 0 0 0 0 0 0 0 0 0 0 0 0 0 0 0 0 0 0 0 0 0 0 0 0 0 0 1 4 25 3 13 11 0 0 0 0 0
0 0 0 0 0 4 0 0 0 0 0 0 0 0 2 0 0 0 0 0 0 0 0 0 0 0 0 0 0 0 0 0 2 0 2 1 8 10 8 0 0 0
1 0 0 0 0 0 0 0 0 1 1 0 0 0 0 0 0 0 0 0 0 0 0 0 0 0 0 0 0 0 0 0 4 26 0 6 5 31 64 17 12 7
18 1 0 0 0 0 0 0 0 0 0 0 0 0 0 0 0 0 0 0 0 0 0 0 1 2 0 0 0 0 0 0 0 20 63 109 72 88 68 61 48 0
0 13 1 0 6 17 21 11 0 0 0 0 0 0 0 0 0 0 0 2 1 0 0 0 1 0 0 0 0 0 0 0 0 0 0 13 82 58 40 67 58 156
0 0 2 4 9 9 5 0 0 0 0 0 0 0 0 0 0 0 0 0 0 0 0 0 0 0 0 0 0 0 0 0 0 0 0 1 1 0 2 12 94 137
0 3 2 0 2 0 0 0 0 0 0 0 0 0 0 0 0 0 0 0 0 0 0 0 0 0 0 0 0 0 0 0 0 0 0 0 3 3 31 60 78 70
22 0 0 0 0 0 0 0 0 0 0 0 0 0 0 0 0 0 0 0 0 0 0 0 0 0 0 0 0 0 0 1 36 44 105 91 36 7 4 3 19 49
3 0 0 0 0 0 0 0 0 3 0 0 0 0 0 0 0 0 0 0 0 0 0 0 0 0 0 0 0 0 0 0 0 4 13 84 126 79 42 56 31 43
0 0 2 0 0 1 6 22 32 3 0 0 4 17 41 38 29 26 5 16 20 9 0 0 0 0 0 0 0 0 0 0 0 0 0 0 0 0 145 170 265 277
1 0 1 0 1 1 3 3 2 45 11 0 36 31 39 64 55 60 70 43 37 51 76 94 29 0 0 0 0 0 0 0 0 0 0 0 0 0 37 239 245 251
3 0 1 4 8 18 6 13 0 0 2 9 46 118 161 162 121 79 93 134 150 131 108 121 131 112 83 0 0 0 0 0 0 0 0 0 0 0 0 19 154 162
0 0 0 0 0 1 1 2 1 0 0 0 0 11 2 9 76 86 66 146 153 80 23 26 12 0 0 0 0 0 0 0 0 0 0 0 0 0 0 0 0 0
Wind_Speed
13 14 16 15 14 13 13 14 15 18 19 17 16 17 16 18 17 16 15 13 12 12 13 11 10 9 8 8 8 11 9 8 7 6 6 6 7 7 7 6 9 9
13 14 15 13 12 11 12 13 16 17 17 15 15 16 17 17 17 16 14 13 12 13 14 14 12 11 10 9 8 8 9 9 9 10 9 8 9 8 7 7 8 11
14 14 14 11 10 10 10 12 15 16 14 13 14 16 17 17 17 16 14 12 13 14 14 13 14 14 13 13 12 12 13 14 13 13 12 12 12 11 11 11 11 12
13 13 12 11 11 12 12 13 14 14 13 13 14 17 18 17 16 14 11 10 10 12 12 13 14 15 15 15 15 15 16 17 17 17 16 16 15 14 14 13 14 14
14 14 13 13 12 13 14 14 15 12 12 13 15 16 17 nan 13 11 10 8 8 9 10 11 12 13 13 13 13 15 16 17 17 16 16 17 16 15 15 14 15 15
17 15 15 14 14 14 14 15 14 13 11 11 12 13 14 14 12 11 10 9 8 8 10 11 11 12 11 12 11 12 13 14 15 14 15 15 15 15 15 14 14 14
18 17 17 16 15 15 16 16 16 14 12 11 12 12 nan nan nan nan 13 12 12 11 12 12 12 12 11 11 11 11 11 12 nan nan nan nan nan nan 15 14 14 14
18 17 17 16 16 16 17 17 16 16 15 nan 13 nan nan nan nan nan nan nan nan nan nan nan nan nan nan nan nan nan nan nan nan nan nan nan nan nan nan nan nan nan
19 18 18 18 17 17 18 18 nan nan nan 16 nan nan nan nan nan nan nan nan nan nan nan nan nan nan nan nan nan nan nan nan nan nan nan nan nan nan nan nan nan nan
18 18 19 18 17 17 17 18 nan nan nan nan nan nan nan nan nan nan nan nan nan nan nan nan nan nan nan nan nan nan nan nan nan nan nan nan nan nan nan nan nan nan
19 nan 19 18 17 17 18 nan nan nan nan nan nan nan nan nan nan nan nan nan nan nan nan nan nan nan nan nan nan nan nan nan nan nan nan nan nan nan nan nan nan nan
nan nan nan nan nan nan nan nan nan nan nan nan nan nan nan nan nan nan nan nan nan nan nan nan nan nan nan nan nan nan nan nan nan nan nan nan nan nan nan nan nan nan
nan nan nan nan nan nan nan nan nan nan nan nan nan nan nan nan nan nan nan nan nan nan nan nan nan nan nan nan nan nan nan nan nan nan nan nan nan nan nan nan nan nan
nan nan nan nan nan nan nan nan nan nan nan nan nan nan nan nan nan nan nan nan nan nan nan nan nan nan nan nan nan nan nan nan nan nan nan nan nan nan nan nan nan nan
nan nan nan nan nan nan nan nan nan nan nan nan nan nan nan nan nan nan nan nan nan nan nan nan nan nan nan nan nan nan nan nan nan nan nan nan nan nan nan nan nan nan
nan nan nan nan nan nan nan nan nan nan nan nan nan nan nan nan nan nan nan nan nan nan nan nan nan nan nan nan nan nan nan nan nan nan nan nan nan nan nan nan nan nan
nan nan nan nan nan nan nan nan nan nan nan nan nan nan nan nan nan nan nan nan nan nan nan nan nan nan nan nan nan nan nan nan nan nan nan 20 nan nan nan nan nan nan
nan nan nan nan nan nan nan nan nan nan nan nan nan nan nan nan nan nan nan nan nan nan nan nan nan nan nan nan nan nan nan nan nan nan nan nan nan nan nan nan nan 23
nan nan nan nan nan nan nan nan nan nan nan nan nan nan nan nan nan nan nan nan nan nan nan nan nan nan nan nan nan nan nan nan nan nan nan nan nan nan nan nan nan 26
nan nan nan nan nan nan nan nan nan nan nan nan nan nan nan nan nan nan nan nan nan nan nan nan nan nan nan nan nan nan nan nan nan nan nan nan nan nan nan nan nan nan
nan nan nan nan nan nan nan nan nan nan nan nan nan nan nan nan nan nan nan nan nan nan nan nan nan nan nan nan nan nan nan nan nan nan 32 nan nan nan nan nan nan nan
nan nan nan nan nan nan nan nan nan nan nan nan nan nan nan nan nan nan nan nan nan nan nan nan nan nan nan nan nan nan nan nan nan nan nan nan 37 nan nan nan nan nan
nan nan nan nan nan nan nan nan nan nan nan nan nan nan nan nan nan nan nan nan nan nan nan nan nan nan nan nan nan nan nan nan nan nan nan nan nan nan 40 40 39 39
nan nan nan nan nan nan nan nan nan nan nan nan nan nan nan nan nan nan nan nan nan nan nan nan nan nan nan nan nan nan nan nan nan nan nan nan nan nan nan 43 45 44
nan nan nan nan nan nan nan nan nan nan nan nan nan 29 28 28 29 nan nan 33 34 36 38 39 40 42 nan nan nan nan nan nan nan nan nan nan nan nan nan nan 46 47
nan nan nan nan nan nan nan nan nan nan nan nan nan nan nan nan nan nan nan 35 37 nan nan nan nan nan nan nan nan nan nan nan nan nan nan nan nan nan nan nan nan nan
Wind_Direction
274 271 272 273 274 272 265 257 250 254 255 253 251 245 242 238 236 234 233 233 237 239 244 248 248 249 243 242 244 250 269 282 281 274 283 269 254 263 261 271 266 261
279 275 270 270 270 269 263 258 255 256 258 252 239 239 235 238 237 238 240 243 245 245 246 245 243 244 246 240 242 248 253 262 266 258 263 267 257 261 261 270 271 266
272 269 272 276 277 289 281 261 257 257 256 246 240 240 240 237 242 243 246 249 250 247 244 243 245 245 245 245 250 251 255 262 265 267 267 270 264 261 260 266 268 276
265 266 265 269 278 290 285 276 268 264 256 252 248 246 247 244 242 245 244 245 250 247 239 237 238 241 244 248 252 252 256 259 260 265 266 263 263 261 260 262 267 273
266 258 257 263 272 278 280 280 282 277 269 259 257 257 256 nan 247 243 237 232 243 253 250 245 239 241 244 248 252 256 257 258 259 263 264 263 260 258 257 261 267 274
251 251 257 263 270 272 271 275 276 275 268 270 269 263 257 255 251 251 248 247 249 260 267 261 254 246 245 248 248 250 256 259 260 264 266 265 264 262 262 265 272 276
248 244 247 251 260 261 260 258 259 260 261 262 265 263 nan nan nan nan 263 263 269 270 270 266 259 251 244 247 247 251 251 258 nan nan nan nan nan nan 268 271 274 276
256 248 245 246 251 251 249 251 251 252 255 nan 266 nan nan nan nan nan nan nan nan nan nan nan nan nan nan nan nan nan nan nan nan nan nan nan nan nan nan nan nan nan
259 254 251 250 250 249 250 249 nan nan nan 259 nan nan nan nan nan nan nan nan nan nan nan nan nan nan nan nan nan nan nan nan nan nan nan nan nan nan nan nan nan nan
265 259 256 253 251 248 251 248 nan nan nan nan nan nan nan nan nan nan nan nan nan nan nan nan nan nan nan nan nan nan nan nan nan nan nan nan nan nan nan nan nan nan
258 nan 250 251 252 253 255 nan nan nan nan nan nan nan nan nan nan nan nan nan nan nan nan nan nan nan nan nan nan nan nan nan nan nan nan nan nan nan nan nan nan nan
nan nan nan nan nan nan nan nan nan nan nan nan nan nan nan nan nan nan nan nan nan nan nan nan nan nan nan nan nan nan nan nan nan nan nan nan nan nan nan nan nan nan
nan nan nan nan nan nan nan nan nan nan nan nan nan nan nan nan nan nan nan nan nan nan nan nan nan nan nan nan nan nan nan nan nan nan nan nan nan nan nan nan nan nan
nan nan nan nan nan nan nan nan nan nan nan nan nan nan nan nan nan nan nan nan nan nan nan nan nan nan nan nan nan nan nan nan nan nan nan nan nan nan nan nan nan nan
nan nan nan nan nan nan nan nan nan nan nan nan nan nan nan nan nan nan nan nan nan nan nan nan nan nan nan nan nan nan nan nan nan nan nan nan nan nan nan nan nan nan
nan nan nan nan nan nan nan nan nan nan nan nan nan nan nan nan nan nan nan nan nan nan nan nan nan nan nan nan nan nan nan nan nan nan nan nan nan nan nan nan nan nan
nan nan nan nan nan nan nan nan nan nan nan nan nan nan nan nan nan nan nan nan nan nan nan nan nan nan nan nan nan nan nan nan nan nan nan 254 nan nan nan nan nan nan
nan nan nan nan nan nan nan nan nan nan nan nan nan nan nan nan nan nan nan nan nan nan nan nan nan nan nan nan nan nan nan nan nan nan nan nan nan nan nan nan nan 260
nan nan nan nan nan nan nan nan nan nan nan nan nan nan nan nan nan nan nan nan nan nan nan nan nan nan nan nan nan nan nan nan nan nan nan nan nan nan nan nan nan 254
nan nan nan nan nan nan nan nan nan nan nan nan nan nan nan nan nan nan nan nan nan nan nan nan nan nan nan nan nan nan nan nan nan nan nan nan nan nan nan nan nan nan
nan nan nan nan nan nan nan nan nan nan nan nan nan nan nan nan nan nan nan nan nan nan nan nan nan nan nan nan nan nan nan nan nan nan 258 nan nan nan nan nan nan nan
nan nan nan nan nan nan nan nan nan nan nan nan nan nan nan nan nan nan nan nan nan nan nan nan nan nan nan nan nan nan nan nan nan nan nan nan 258 nan nan nan nan nan
nan nan nan nan nan nan nan nan nan nan nan nan nan nan nan nan nan nan nan nan nan nan nan nan nan nan nan nan nan nan nan nan nan nan nan nan nan nan 262 263 264 262
nan nan nan nan nan nan nan nan nan nan nan nan nan nan nan nan nan nan nan nan nan nan nan nan nan nan nan nan nan nan nan nan nan nan nan nan nan nan nan 264 266 268
nan nan nan nan nan nan nan nan nan nan nan nan nan 254 256 260 259 nan nan 254 251 248 244 247 249 248 nan nan nan nan nan nan nan nan nan nan nan nan nan nan 264 269
nan nan nan nan nan nan nan nan nan nan nan nan nan nan nan nan nan nan nan 257 253 nan nan nan nan nan nan nan nan nan nan nan nan nan nan nan nan nan nan nan nan nan